Englewood, CO

12:46 PM MDT on September 25, 2016 (GMT -0600)
Centennial

Weather History for KAPA - December, 2011

Change the Weather History Date:

Saturday, December 17, 2011

  Actual Average Record
Temperature  
Mean Temperature 30 °F -  
Max Temperature 44 °F 39 °F 64 °F (1998)
Min Temperature 16 °F 16 °F -7 °F (1996)
Degree Days  
Heating Degree Days 35    
Month to date heating degree days 680  
Moisture  
Dew Point 15 °F    
Average Humidity 52    
Maximum Humidity 71    
Minimum Humidity 33    
Precipitation  
Precipitation 0.00 in - - ()
Month to date precipitation 0.09  
Sea Level Pressure  
Sea Level Pressure 30.38 in    
Wind  
Wind Speed 4 mph (South)    
Max Wind Speed 8 mph    
Max Gust Speed 9 mph    
Visibility 10 miles    
Events      
Averages and records for this station are not official NWS values.
T = Trace of Precipitation, MM = Missing Value Source: NWS Daily Summary

Daily Weather History Graph

Daily Weather History Graph

Search for Another Location

Airport or City:

Trip Planner

Search our weather history database for the weather conditions in past years. The results will help you decide how hot, cold, wet, or windy it might be!

Date:

Astronomy

Dec. 17, 2011 Rise Set
Actual Time 7:13 AM MST 4:36 PM MST
Civil Twilight 6:43 AM MST 5:07 PM MST
Nautical Twilight 6:09 AM MST 5:41 PM MST
Astronomical Twilight 5:37 AM MST 6:13 PM MST
Moon No Moon Rise 11:31 AM MST (12/17)
Length of Visible Light 10h 23m
Length of Day
9h 23m
Waning Gibbous, 53% of the Moon is Illuminated
Dec 17
Waning Gibbous
Dec 17
Last Quarter
Dec 24
New
Dec 31
First Quarter
Jan 9
Full

Hourly Weather History & Observations

Time (MST) Temp. Windchill Dew Point Humidity Pressure Visibility Wind Dir Wind Speed Gust Speed Precip Events Conditions
12:53 AM 21.0 °F 14.6 °F 12.9 °F 71% 30.44 in 10.0 mi South 4.6 mph - N/A   Clear
1:53 AM 23.0 °F 18.4 °F 14.0 °F 68% 30.44 in 10.0 mi South 3.5 mph - N/A   Clear
2:53 AM 24.1 °F - 12.9 °F 62% 30.43 in 10.0 mi Calm Calm - N/A   Clear
3:53 AM 21.9 °F 14.5 °F 12.9 °F 68% 30.42 in 10.0 mi South 5.8 mph - N/A   Clear
4:53 AM 23.0 °F 15.8 °F 10.9 °F 60% 30.40 in 10.0 mi SE 5.8 mph - N/A   Clear
5:53 AM 24.1 °F 19.7 °F 10.9 °F 57% 30.43 in 10.0 mi SE 3.5 mph - N/A   Clear
6:53 AM 23.0 °F 14.7 °F 10.0 °F 58% 30.45 in 10.0 mi South 6.9 mph - N/A   Clear
7:53 AM 25.0 °F 20.7 °F 10.0 °F 53% 30.47 in 10.0 mi West 3.5 mph - N/A   Clear
8:53 AM 30.9 °F 24.3 °F 15.1 °F 52% 30.45 in 10.0 mi SW 6.9 mph - N/A   Clear
9:53 AM 37.9 °F - 12.0 °F 35% 30.45 in 10.0 mi Calm Calm - N/A   Clear
10:53 AM 39.9 °F 37.8 °F 15.1 °F 36% 30.44 in 10.0 mi North 3.5 mph - N/A   Clear
11:53 AM 41.0 °F 39.0 °F 16.0 °F 36% 30.41 in 10.0 mi North 3.5 mph - N/A   Clear
12:53 PM 39.9 °F 37.8 °F 16.0 °F 38% 30.39 in 10.0 mi ESE 3.5 mph - N/A   Clear
1:53 PM 43.0 °F - 17.1 °F 35% 30.35 in 10.0 mi Calm Calm - N/A   Clear
2:53 PM 43.0 °F 41.3 °F 16.0 °F 34% 30.33 in 10.0 mi NNW 3.5 mph - N/A   Clear
3:53 PM 41.0 °F 37.1 °F 21.0 °F 45% 30.35 in 10.0 mi North 5.8 mph - N/A   Clear
4:53 PM 37.0 °F 33.3 °F 19.0 °F 48% 30.36 in 10.0 mi North 4.6 mph - N/A   Clear
5:53 PM 33.1 °F - 18.0 °F 54% 30.37 in 10.0 mi Calm Calm - N/A   Clear
6:53 PM 32.0 °F - 18.0 °F 56% 30.38 in 10.0 mi Calm Calm - N/A   Clear
7:53 PM 30.0 °F - 17.1 °F 59% 30.37 in 10.0 mi Calm Calm - N/A   Clear
8:53 PM 27.0 °F 21.6 °F 17.1 °F 66% 30.34 in 10.0 mi South 4.6 mph - N/A   Clear
9:53 PM 28.0 °F 22.8 °F 18.0 °F 66% 30.28 in 10.0 mi SSW 4.6 mph - N/A   Clear
10:53 PM 28.9 °F 25.2 °F 17.1 °F 61% 30.25 in 10.0 mi South 3.5 mph - N/A   Clear
11:53 PM 28.0 °F - 17.1 °F 63% 30.23 in 10.0 mi Calm Calm - N/A   Clear